This is the latest recevied weather packets stored in our database for station/object KC3ULW-13. If no packets are shown the sender has not sent any weather packets the latest 1 day(s).
| Time | Temp. | Humidity | Pressure | Rain* | Wind** | Luminosity | Snow |
|---|---|---|---|---|---|---|---|
| 1778034766 | 18.89° C | 57% | 1010.3 hPa | 0 mm | - | 0 W/m² | - |
| 1778034462 | 18.89° C | 57% | 1010.3 hPa | 0 mm | - | 0 W/m² | - |
| 1778033858 | 18.89° C | 56% | 1010.2 hPa | 0 mm | - | 0 W/m² | - |
| 1778033555 | 19.44° C | 56% | 1010.1 hPa | 0 mm | - | 0 W/m² | - |
| 1778032647 | 19.44° C | 55% | 1010.3 hPa | 0 mm | - | 0 W/m² | - |
| 1778032041 | 19.44° C | 55% | 1010.3 hPa | 0 mm | - | 0 W/m² | - |
| 1778031737 | 20° C | 54% | 1010.2 hPa | 0 mm | - | 0 W/m² | - |
| 1778031435 | 20° C | 54% | 1010.1 hPa | 0 mm | - | 0 W/m² | - |
| 1778031132 | 20° C | 53% | 1010.1 hPa | 0 mm | - | 0 W/m² | - |
| 1778030828 | 20° C | 53% | 1010.1 hPa | 0 mm | - | 0 W/m² | - |
| 1778030525 | 20° C | 53% | 1010.1 hPa | 0 mm | - | 0 W/m² | - |
| 1778030222 | 20° C | 53% | 1010.1 hPa | 0 mm | - | 0 W/m² | - |
| 1778029918 | 20° C | 53% | 1009.9 hPa | 0 mm | - | 0 W/m² | - |
| 1778029617 | 20° C | 52% | 1010 hPa | 0 mm | - | 0 W/m² | - |
| 1778029314 | 20° C | 52% | 1009.9 hPa | 0 mm | - | 0 W/m² | - |
| 1778029011 | 20.56° C | 52% | 1010.2 hPa | 0 mm | - | 0 W/m² | - |
| 1778028101 | 21.11° C | 50% | 1010.2 hPa | 0 mm | - | 0 W/m² | - |
| 1778027190 | 21.11° C | 49% | 1010.2 hPa | 0 mm | - | 0 W/m² | - |
| 1778026886 | 21.11° C | 48% | 1010.2 hPa | 0 mm | - | 0 W/m² | - |
| 1778025372 | 21.67° C | 47% | 1010.2 hPa | 0 mm | - | 8 W/m² | - |
| 1778024462 | 21.67° C | 47% | 1009.9 hPa | 0 mm | - | 17 W/m² | - |
| 1778024160 | 21.67° C | 47% | 1010.2 hPa | 0 mm | - | 20 W/m² | - |
| 1778023857 | 22.22° C | 47% | 1010.1 hPa | 0 mm | - | 20 W/m² | - |
| 1778022041 | 22.22° C | 49% | 1009.7 hPa | 0 mm | - | 52 W/m² | - |
| 1778019614 | 22.78° C | 51% | 1010.2 hPa | 0 mm | - | 95 W/m² | - |
* Rain latest hour (hover to see other rain measurements)
** Current wind speed in m/s (hover to see current wind gust speed)